Location: Star Hoppers Observatory
(42.7905°N, 83.6127°W)
Time: 05:51:01
(UTC-04:00)

NOSS 3-1 (A) - Visible Passes

Search period start: 24 May 2016 00:00
Search period end: 03 June 2016 00:00
Orbit: 858 x 1355 km, 63.4° (Epoch: 01 May)

Date Brightness Start Highest point End Pass type
(mag) Time Alt. Az. Time Alt. Az. Time Alt. Az.
28 May 5.5 05:09:24 10° SSE 05:13:46 22° ESE 05:18:25 10° ENE visible
29 May 5.8 04:27:25 10° SE 04:29:36 12° ESE 04:31:50 10° E visible
31 May 4.9 04:45:13 10° S 04:50:15 30° ESE 04:55:40 10° NE visible
01 Jun 5.5 04:02:13 10° SSE 04:05:59 18° ESE 04:09:57 10° ENE visible
02 Jun 3.7 05:05:25 10° SSW 05:11:15 68° ESE 05:17:44 10° NE visible
